Location: Newark
(5.8900°S, 42.6378°W)
Time: 16:07:31
(UTC+00:00)

Vanguard 1 Rocket - All Passes

Search period start: 18 October 2019 00:00
Search period end: 28 October 2019 00:00
Orbit: 650 x 4226 km, 34.3° (Epoch: 17 October)

Date Brightness Start Highest point End Pass type
(mag) Time Alt. Az. Time Alt. Az. Time Alt. Az.
18 Oct - 00:25:19 10° WNW 00:38:55 37° SW 00:46:27 10° SSE visible
18 Oct - 07:58:55 10° SSW 08:03:11 26° SE 08:09:18 10° E visible
18 Oct - 10:22:05 10° WSW 10:28:41 54° NNW 10:41:18 10° NE daylight
18 Oct - 12:51:07 10° WNW 12:59:17 20° NNW 13:11:16 10° NNE daylight
18 Oct - 15:29:41 10° NNW 15:37:57 13° N 15:47:13 10° NNE daylight
18 Oct - 18:02:32 10° NNW 18:20:46 23° NNE 18:36:25 10° ENE daylight
18 Oct - 20:33:25 10° NW 20:56:55 51° NNE 21:10:44 10° ESE visible
18 Oct - 23:07:48 10° WNW 23:26:54 64° SW 23:36:29 10° SE visible
19 Oct - 01:48:59 10° WSW 01:53:42 14° SW 01:57:25 10° S visible
19 Oct - 09:11:27 10° SW 09:16:59 87° SE 09:27:12 10° NE daylight
19 Oct - 11:37:46 10° WNW 11:45:04 26° NNW 11:57:00 10° NNE daylight
19 Oct - 14:13:07 10° NNW 14:19:50 13° N 14:27:53 10° NNE daylight
19 Oct - 16:48:34 10° NNW 17:02:25 17° NNE 17:16:22 10° NE daylight
19 Oct - 19:18:37 10° NNW 19:41:29 38° NNE 19:57:24 10° E daylight
19 Oct - 21:51:06 10° NW 22:14:01 87° NE 22:25:48 10° SE visible
20 Oct - 00:29:19 10° W 00:41:42 29° SW 00:49:03 10° SSE visible
20 Oct - 08:01:28 10° SSW 08:06:03 39° SE 08:13:03 10° ENE visible
20 Oct - 10:25:45 10° W 10:32:04 37° NNW 10:43:15 10° NE daylight
20 Oct - 12:57:02 10° NW 13:03:33 15° NNW 13:12:07 10° NNE daylight
20 Oct - 15:34:53 10° NNW 15:43:23 13° N 15:52:46 10° NNE daylight
20 Oct - 18:04:30 10° NNW 18:24:53 28° NNE 18:41:55 10° ENE daylight
20 Oct - 20:35:17 10° NW 20:59:59 63° NE 21:14:14 10° ESE visible
20 Oct - 23:10:55 10° WNW 23:29:33 51° SW 23:39:17 10° SE visible
21 Oct - 01:55:57 10° SW 01:57:04 10° SSW 01:58:07 10° SSW visible
21 Oct - 06:52:28 10° S 06:55:10 15° SE 06:58:16 10° ESE visible
21 Oct - 09:14:40 10° WSW 09:20:05 62° NNW 09:29:46 10° NE daylight
21 Oct - 11:42:40 10° WNW 11:48:57 18° NNW 11:58:06 10° NNE daylight
21 Oct - 14:20:57 10° NNW 14:24:56 11° N 14:29:20 10° NNE daylight
21 Oct - 16:51:05 10° NNW 17:07:12 20° NNE 17:23:07 10° ENE daylight
21 Oct - 19:20:23 10° NW 19:44:47 47° NNE 20:01:26 10° E daylight
21 Oct - 21:53:33 10° WNW 22:16:43 78° SW 22:28:47 10° SE visible
22 Oct - 00:33:50 10° W 00:44:39 23° SW 00:51:34 10° SSE visible
22 Oct - 08:04:16 10° SW 08:08:57 63° SE 08:16:22 10° ENE visible
22 Oct - 10:29:51 10° WNW 10:35:38 25° NNW 10:44:53 10° NNE daylight
22 Oct - 13:04:51 10° NNW 13:08:06 11° N 13:11:46 10° N daylight
22 Oct - 15:38:30 10° N 15:48:41 14° NNE 15:59:54 10° NE daylight
22 Oct - 18:06:22 10° NNW 18:28:35 34° NNE 18:46:48 10° E daylight
22 Oct - 20:37:20 10° NW 21:02:49 77° NE 21:17:29 10° ESE visible
22 Oct - 23:14:28 10° WNW 23:32:14 41° SW 23:42:00 10° SSE visible
23 Oct - 06:54:31 10° SSW 06:58:12 24° SE 07:02:41 10° E visible
23 Oct - 09:18:11 10° W 09:23:21 40° NNW 09:32:00 10° NE daylight
23 Oct - 11:48:44 10° NW 11:53:02 13° NNW 11:58:25 10° N daylight
23 Oct - 14:29:04 10° N 14:30:13 10° N 14:31:24 10° N daylight
23 Oct - 16:53:15 10° NNW 17:11:29 24° NNE 17:29:16 10° ENE daylight
23 Oct - 19:22:15 10° NW 19:47:50 57° NE 20:05:06 10° ESE daylight
23 Oct - 21:56:20 10° WNW 22:19:19 65° SW 22:31:39 10° SE visible
24 Oct - 00:38:50 10° WSW 00:47:50 18° SSW 00:54:01 10° S visible
24 Oct - 08:07:19 10° WSW 08:11:59 80° NW 08:19:17 10° NE daylight
24 Oct - 10:34:39 10° WNW 10:39:23 17° NNW 10:46:00 10° NNE daylight
24 Oct - 15:41:09 10° NNW 15:53:37 16° NNE 16:07:25 10° NE daylight
24 Oct - 18:08:15 10° NNW 18:31:55 42° NE 18:51:08 10° E daylight
24 Oct - 20:39:37 10° NW 21:05:29 90° SW 21:20:32 10° SE visible
24 Oct - 23:18:28 10° W 23:35:02 33° SW 23:44:40 10° SSE visible
25 Oct - 06:57:02 10° SW 07:01:11 40° SE 07:06:26 10° ENE visible
25 Oct - 09:22:08 10° W 09:26:49 25° NNW 09:33:53 10° NNE daylight
25 Oct - 14:31:53 10° N 14:35:29 11° NNE 14:39:20 10° NNE daylight
25 Oct - 16:55:14 10° NNW 17:15:17 29° NNE 17:34:43 10° E daylight
25 Oct - 19:24:16 10° NW 19:50:38 68° NE 20:08:28 10° ESE daylight
25 Oct - 21:59:29 10° WNW 22:21:54 53° SW 22:34:25 10° SE visible
26 Oct - 00:44:14 10° WSW 00:51:15 15° SSW 00:56:29 10° S visible
26 Oct - 05:47:28 10° S 05:50:13 16° SSE 05:52:59 10° ESE visible
26 Oct - 08:10:40 10° WSW 08:15:08 47° NNW 08:21:51 10° NE daylight
26 Oct - 10:41:17 10° NNW 10:43:18 11° NNW 10:45:34 10° N daylight
26 Oct - 15:43:19 10° NNW 15:58:05 20° NNE 16:14:28 10° ENE daylight
26 Oct - 18:10:10 10° NW 18:34:56 50° NE 18:55:01 10° ESE daylight
26 Oct - 20:42:10 10° WNW 21:08:02 76° SW 21:23:26 10° SE visible
26 Oct - 23:22:57 10° W 23:38:02 28° SW 23:47:20 10° SSE visible
27 Oct - 06:59:51 10° SW 07:04:12 72° SE 07:09:44 10° ENE visible
27 Oct - 09:26:49 10° WNW 09:30:25 16° NNW 09:35:08 10° NNE daylight
27 Oct - 14:33:29 10° N 14:40:30 12° NNE 14:48:25 10° NE daylight
27 Oct - 16:57:11 10° NNW 17:18:40 36° NE 17:39:29 10° E daylight
27 Oct - 19:26:28 10° NW 19:53:15 81° NE 20:11:35 10° ESE daylight
27 Oct - 22:03:04 10° WNW 22:24:35 44° SW 22:37:08 10° SSE visible
